Powrót do katalogu

STARLINK-36513

AktywnyŁącznośćVLEO
NORAD 67429·PAYLOAD·🇺🇸 United States

Wystrzelony Jan 12, 2026 z Cape Canaveral Space Force Station

Loading…

Następne Przeloty (najbliższe 24 godziny)

TLE

ŚwieżeSource: CelesTrak SupGP

Epoka: Sep 14, 2026, 21:03 UTC

1 67429C 26005AB  26257.87756944  .00037227  00000+0  13489-2 0  2577
2 67429  43.0015 249.4058 0001309 261.3833  35.5756 15.27547441    16

Śledź STARLINK-36513 w czasie rzeczywistym z AllMySat

Download on the App Store